Powrót do katalogu

KOREASAT 7

AktywnyŁącznośćGEO
NORAD 42691·PAYLOAD·🇰🇷 South Korea

Wystrzelony May 4, 2017 z Guiana Space Centre

Loading…

TLE

ŚwieżeSource: Space-Track

Epoka: Sep 14, 2026, 14:21 UTC

1 42691U 17023A   26257.59806778 -.00000370  00000-0  00000-0 0  9998
2 42691   0.0221  36.4859 0000952 151.6227 136.6795  1.00271929 34267

Śledź KOREASAT 7 w czasie rzeczywistym z AllMySat

Download on the App Store